GEFSSGP_con_cape1000_054.txt.gz
Probability
0 0 0 0 65 45 3 0 0 0 0 0 0 0 0 0 0 6 32 6 3 23 97 100 100 97 100 100 100 100 100 100 100 100 100 100 100 100 97 97 87 77 81 71 65 74 71 74 81
0 0 0 13 29 0 0 0 0 0 0 0 0 0 0 0 10 19 16 6 3 48 100 100 100 100 100 100 100 100 100 100 100 100 100 100 100 100 97 90 90 90 81 68 55 48 48 48 45
0 0 0 10 3 0 0 0 0 0 0 0 0 0 0 10 19 19 19 6 13 84 100 100 100 100 100 100 100 100 97 100 100 100 100 100 100 97 97 97 100 94 87 71 52 48 39 39 39
0 0 0 0 0 0 0 0 0 0 0 0 0 0 10 39 10 6 13 10 29 87 100 100 100 100 100 100 100 97 97 97 94 97 97 97 97 97 97 97 100 94 87 71 55 55 48 42 35
0 0 0 0 0 0 0 0 0 0 0 0 0 0 10 55 19 10 16 13 58 87 97 100 100 100 100 100 100 100 97 97 97 100 100 97 97 97 97 94 97 94 94 90 74 68 61 52 48
0 0 0 0 0 0 0 0 0 0 0 0 0 0 39 77 29 23 10 19 26 61 94 100 100 100 100 100 100 100 100 97 97 97 100 100 100 100 97 100 97 97 94 90 87 90 87 84 77
0 0 0 0 0 0 0 0 0 0 0 0 0 0 52 61 39 35 35 19 26 42 84 100 100 100 100 100 100 100 100 100 100 97 97 100 100 100 100 100 100 100 100 100 97 97 97 97 97
0 0 0 0 0 0 0 0 0 0 0 0 0 3 42 90 68 58 58 48 39 48 81 100 100 100 100 100 100 100 97 97 97 100 100 100 100 100 100 100 100 100 100 100 100 100 100 100 100
0 0 0 0 0 0 0 0 0 0 10 10 10 42 74 90 84 81 81 74 77 68 94 100 100 100 100 94 97 97 97 97 97 97 97 100 94 61 100 100 100 100 100 100 100 100 100 100 100
0 0 0 0 0 0 0 0 0 0 6 16 48 87 97 100 100 100 100 100 97 97 97 100 100 100 100 84 90 90 90 90 90 94 94 94 94 100 61 90 100 100 100 100 100 100 100 100 97
0 0 0 0 0 0 0 0 3 0 10 19 39 74 100 100 100 100 100 100 97 94 97 97 100 100 94 90 84 84 84 84 81 84 94 90 90 90 90 84 100 100 100 100 100 100 100 100 94
0 0 0 0 0 0 0 3 6 16 23 39 39 71 94 100 100 100 100 100 97 100 100 100 100 100 94 87 74 71 68 65 65 71 81 87 90 90 87 94 84 97 100 100 94 97 97 97 97
0 0 0 0 0 0 3 6 6 16 29 52 65 90 94 100 100 100 100 100 100 100 100 97 97 100 90 90 84 61 55 48 48 68 65 77 87 90 87 94 94 84 87 87 94 84 87 94 87
0 0 0 0 0 0 6 3 6 19 35 58 74 84 87 100 100 100 100 100 97 97 97 94 94 90 90 90 90 77 55 58 45 45 48 65 74 84 90 90 87 81 81 84 97 81 81 84 84
0 0 0 0 0 0 0 3 16 29 45 65 71 87 90 94 97 97 97 97 97 97 94 94 87 84 90 84 74 68 48 35 48 45 48 65 68 71 81 84 81 71 77 90 94 84 77 74 52
0 0 0 0 0 0 0 10 35 58 71 71 74 74 71 77 84 84 87 94 100 97 94 94 68 84 90 87 81 71 48 42 39 45 42 48 68 68 74 71 65 71 58 68 77 68 52 35 35
0 0 0 3 13 0 3 45 58 68 74 74 71 71 71 68 65 68 71 74 68 74 84 87 81 77 77 77 77 68 65 52 52 42 42 58 55 58 52 48 48 58 55 42 23 19 26 16 29
0 0 0 3 29 32 35 61 55 58 74 71 71 65 68 71 55 61 65 55 58 61 65 68 58 68 71 65 65 65 55 52 52 42 52 52 55 39 35 32 32 35 39 32 26 39 39 26 16
0 0 0 29 39 39 45 52 55 55 61 48 55 61 61 55 52 55 65 58 55 61 61 65 65 65 71 58 52 45 39 45 45 23 23 23 23 19 29 32 29 35 29 23 13 13 6 19 10
0 0 10 48 52 48 55 48 48 42 39 35 35 42 45 42 45 55 52 52 55 48 55 52 48 42 55 52 61 48 32 29 39 29 16 16 6 16 6 16 23 35 39 26 23 26 16 10 3
0 0 6 39 52 48 58 58 71 48 32 26 29 32 32 29 32 16 13 16 23 39 39 23 42 42 42 42 29 26 35 35 13 10 13 10 13 13 13 10 13 23 23 19 26 26 16 10 6
0 0 6 26 48 35 39 16 71 52 42 35 29 29 26 26 16 13 10 10 13 13 13 23 23 32 32 23 23 19 29 19 16 10 6 10 10 6 3 10 6 10 13 19 6 13 16 19 6
0 0 3 16 3 0 0 0 48 58 45 35 26 23 19 13 10 10 13 16 13 6 6 10 13 19 23 19 23 23 23 13 16 6 3 6 6 3 0 0 3 6 10 13 10 16 16 23 13
0 3 3 0 0 0 0 0 6 52 39 26 23 19 19 16 13 10 6 10 6 0 3 3 10 19 23 16 16 23 19 19 6 3 3 0 0 0 0 0 3 6 6 13 29 32 32 42 23
0 0 0 0 0 0 0 0 35 39 19 16 10 16 16 10 6 3 3 6 6 0 0 0 10 13 13 10 6 3 6 3 3 3 3 3 3 0 0 0 0 0 6 10 13 26 29 32 45
0 0 0 0 0 0 0 0 48 13 13 16 10 3 0 3 6 3 3 0 0 0 0 0 3 3 3 3 3 6 0 0 0 0 0 0 0 0 0 3 0 0 0 0 6 6 16 26 35
0 0 0 0 0 0 0 0 19 16 6 0 3 0 0 0 0 3 3 0 0 0 0 0 0 3 3 0 0 3 3 0 0 0 0 0 3 0 0 0 0 0 0 0 0 0 3 6 13
0 0 0 0 0 0 0 0 0 0 0 0 0 0 0 0 0 0 0 0 0 0 0 0 0 0 0 0 0 0 0 3 3 0 0 0 0 0 0 0 0 0 0 0 0 0 0 0 3
0 0 0 0 0 0 0 0 0 0 0 0 0 0 0 0 0 0 0 0 0 0 0 0 0 0 0 0 0 0 0 0 3 0 0 0 0 0 0 0 0 0 0 0 0 0 0 0 0
0 0 0 0 0 0 0 0 0 0 0 0 0 0 0 0 0 0 0 0 0 0 0 0 0 0 0 0 0 0 0 0 0 0 0 0 0 0 0 0 0 0 0 0 0 0 0 0 0

GEFSSGP_con_cape1000_060.txt.gz
Probability
3 0 0 23 48 61 16 0 0 0 0 0 0 0 0 13 29 58 10 26 100 94 77 100 100 100 100 100 100 100 100 100 100 100 100 100 100 100 100 97 94 90 84 84 94 94 84 87 90
0 0 13 42 77 29 0 0 0 0 0 0 0 0 0 6 3 6 13 65 100 90 77 100 100 100 100 100 100 100 100 100 100 100 100 100 100 100 97 94 94 94 84 74 74 68 71 77 74
6 10 6 61 68 10 0 0 0 0 0 0 0 0 0 3 6 16 13 81 100 97 94 100 100 100 100 100 100 100 100 100 100 100 100 100 100 100 97 90 87 90 94 77 61 52 55 58 58
10 3 6 13 10 0 0 0 0 0 0 0 0 3 3 3 6 13 10 84 100 100 100 100 100 100 100 100 100 100 100 100 100 100 100 100 100 100 97 94 94 94 90 81 68 58 58 45 48
3 6 6 6 0 0 0 0 0 0 0 0 3 13 6 3 3 10 16 87 97 100 100 100 100 100 100 100 100 100 100 100 100 100 100 100 100 100 100 100 97 94 94 94 77 68 68 48 48
3 0 0 0 0 0 0 0 0 0 0 0 6 19 10 3 3 6 26 65 90 100 100 100 100 100 100 100 100 100 100 100 100 100 100 100 100 100 100 97 97 97 97 97 94 81 77 74 65
0 0 0 0 0 0 0 0 0 0 0 0 0 13 10 3 3 6 16 45 68 100 100 100 100 100 100 100 100 100 100 100 100 100 100 100 100 100 100 97 97 97 97 97 97 90 90 90 90
0 0 0 0 0 0 0 0 0 0 0 0 0 19 16 10 10 10 13 19 61 100 100 100 100 100 100 100 100 100 100 100 100 100 100 100 100 100 100 100 100 100 100 100 100 100 100 100 100
0 0 0 0 0 0 0 0 0 0 3 10 13 35 35 26 16 16 16 29 81 100 100 100 100 100 100 100 100 100 100 100 100 100 100 100 100 100 100 100 100 100 100 100 100 100 100 100 100
0 0 0 0 0 0 0 0 0 3 3 3 23 39 48 39 39 42 26 45 77 94 97 100 100 100 100 100 100 100 100 100 97 100 100 100 100 100 90 100 100 97 100 100 100 100 100 100 100
0 0 0 0 0 0 0 0 6 6 13 6 32 58 55 68 81 71 77 81 100 100 97 97 100 100 100 100 100 100 97 100 97 97 97 100 100 100 100 100 100 97 100 100 100 100 100 100 87
0 0 0 0 0 0 0 3 10 13 16 10 35 45 71 71 87 87 90 90 97 100 100 97 100 100 100 100 97 94 94 94 94 100 100 100 100 100 100 97 97 97 97 97 100 100 97 94 90
0 0 0 0 0 0 6 6 10 19 32 45 58 65 77 90 94 100 100 100 100 100 100 100 100 100 100 100 97 97 97 97 97 97 94 97 100 100 100 100 94 94 94 94 90 94 90 90 84
0 0 0 0 0 0 0 6 13 26 45 58 74 90 94 97 100 100 100 100 100 100 100 100 100 100 100 100 100 100 100 100 94 97 97 94 97 100 97 90 90 81 87 84 94 77 68 71 71
0 0 0 0 0 0 3 6 13 32 52 58 77 90 97 100 100 97 100 97 100 100 100 100 100 100 100 100 100 100 100 97 97 97 94 100 100 94 90 87 81 77 77 74 65 55 55 48 52
0 0 0 0 0 0 0 13 26 45 55 77 87 97 100 100 100 100 100 100 100 100 100 100 94 100 100 100 100 100 97 97 94 94 97 94 90 90 90 87 77 81 74 68 61 35 29 26 35
0 0 0 0 0 0 0 23 48 58 81 87 90 94 90 94 94 94 97 100 100 97 100 97 97 97 100 100 100 100 97 97 97 90 97 94 90 84 81 81 74 74 58 61 29 23 29 23 19
0 0 0 0 0 3 13 52 55 68 68 81 87 84 87 87 94 94 94 94 94 94 97 94 97 94 100 97 97 97 97 87 87 81 84 84 84 74 74 68 71 61 55 48 29 26 26 16 13
0 0 0 0 0 6 23 52 58 65 61 74 77 81 84 84 84 77 84 84 90 94 90 90 90 87 94 94 94 84 74 68 71 71 68 61 48 48 61 55 61 58 39 35 19 16 16 13 6
0 0 0 0 0 3 19 42 55 55 65 68 74 74 77 77 74 65 61 61 71 81 84 81 74 71 74 74 77 87 74 61 55 58 61 45 35 35 19 45 35 42 39 29 23 16 10 10 6
0 0 0 0 0 3 10 26 52 42 52 58 58 48 45 52 52 45 35 35 39 45 58 39 65 65 61 65 68 65 74 65 55 55 55 39 29 23 32 23 26 23 29 29 26 16 10 10 10
0 0 0 0 0 0 3 6 39 45 42 45 35 26 29 26 29 29 23 23 32 35 32 58 52 58 61 55 65 48 45 42 42 55 45 26 13 13 10 13 13 13 16 19 16 13 13 10 6
0 0 0 0 0 0 0 0 26 32 32 29 29 13 19 23 23 19 19 23 19 16 26 42 61 61 65 58 55 61 45 35 35 32 29 26 23 16 13 6 13 6 6 10 6 6 16 16 6
0 0 0 0 0 0 0 0 13 32 32 32 19 13 10 6 6 16 13 13 19 16 19 19 52 52 48 42 39 48 42 45 29 23 19 13 16 19 10 6 6 3 3 3 6 10 10 3 6
0 0 0 3 0 0 0 0 19 23 16 10 10 13 13 10 6 6 10 10 26 19 23 16 32 29 32 32 29 29 26 19 26 13 13 10 3 6 16 3 10 3 3 0 3 3 6 3 3
0 0 0 0 0 0 0 10 29 10 0 0 0 0 0 3 3 6 10 10 10 6 16 16 16 19 19 19 16 19 16 10 6 10 6 0 0 0 6 6 6 6 6 3 3 0 3 3 3
0 0 0 0 0 0 10 26 10 10 0 0 0 0 0 0 0 0 6 0 0 0 3 3 3 3 6 6 6 16 16 10 3 0 3 0 0 0 0 6 3 3 6 6 3 3 0 0 0
0 0 0 0 3 0 3 6 16 0 0 0 0 0 0 0 0 0 0 0 0 0 0 3 3 3 3 3 3 0 3 3 0 0 0 0 3 0 0 0 0 0 0 0 0 0 3 0 0
0 0 0 0 0 0 0 0 3 0 0 0 0 0 0 0 0 0 0 0 0 0 0 0 0 0 0 0 0 3 3 0 3 3 0 0 0 0 3 0 0 0 0 0 0 0 0 0 0
0 0 0 0 0 0 0 0 0 0 0 0 0 0 0 0 0 0 0 0 0 0 0 0 0 0 0 0 0 0 0 0 0 0 0 0 0 0 0 0 0 0 0 0 0 0 0 0 0

GEFSSGP_con_cape1000_066.txt.gz
Probability
35 13 3 0 6 13 19 13 0 0 0 0 0 3 6 26 23 10 26 32 45 94 100 100 100 100 100 100 100 100 100 100 100 100 100 100 100 100 100 100 97 100 100 100 100 100 100 100 100
6 3 0 0 16 19 6 0 0 0 0 0 0 0 3 29 65 55 39 32 55 87 100 100 100 100 100 100 100 100 100 100 100 100 100 100 100 100 100 100 97 97 100 100 100 100 97 100 100
0 0 0 0 10 19 0 0 0 0 0 0 0 0 3 13 74 77 39 35 58 90 97 100 100 100 100 100 100 100 100 100 100 100 100 100 100 100 100 100 100 100 100 100 97 94 94 97 97
0 3 3 3 0 0 0 0 0 0 0 0 0 0 0 16 81 77 42 32 52 87 100 100 100 100 100 100 100 100 100 100 100 100 100 100 100 100 100 100 100 100 100 100 97 97 90 94 97
0 0 3 0 0 3 0 0 0 0 0 0 3 0 3 71 90 68 48 42 55 90 100 100 100 100 100 100 100 100 100 100 100 100 100 100 100 100 100 100 100 100 100 100 97 94 90 94 87
0 0 0 0 0 0 0 0 0 0 0 0 3 3 6 77 87 74 61 48 68 90 100 100 100 100 100 100 100 100 100 100 100 100 100 100 100 100 100 100 100 100 100 100 100 97 94 90 90
0 0 0 0 0 0 0 0 0 0 3 0 3 3 3 68 90 90 84 71 74 97 100 100 100 100 100 100 100 100 100 100 100 100 100 100 100 100 100 100 100 100 100 100 100 100 100 97 90
0 0 0 0 0 0 0 0 0 0 3 6 3 3 0 19 81 90 84 87 87 97 100 100 100 100 100 100 100 100 100 100 100 100 100 100 100 100 100 100 100 100 100 100 100 100 100 100 100
0 0 0 0 0 0 0 0 0 6 13 13 13 3 0 13 61 90 90 97 94 97 100 100 100 100 100 100 100 100 100 100 100 100 100 100 100 100 100 100 100 100 100 100 97 97 100 100 100
0 0 0 0 0 0 0 0 3 10 16 19 13 16 16 23 58 84 87 94 90 94 100 97 100 100 100 100 100 100 100 100 100 100 100 100 100 100 100 100 100 100 100 100 97 97 97 97 97
0 0 0 0 0 0 16 16 19 13 23 29 26 32 29 32 42 65 81 90 94 90 97 97 100 97 100 100 100 100 100 100 100 100 100 97 97 94 97 87 90 90 94 94 97 97 97 94 94
0 0 0 0 3 3 16 29 29 32 39 42 52 55 55 45 48 52 71 84 87 94 94 100 100 97 94 90 90 94 90 94 90 87 87 90 90 87 74 65 68 71 77 77 84 84 87 81 84
0 0 0 0 3 6 23 42 52 42 48 61 68 81 71 65 61 58 71 68 84 90 90 97 87 87 81 74 77 74 81 87 87 81 84 84 81 68 55 42 39 58 61 68 65 71 71 65 65
0 0 0 0 0 13 32 39 55 58 74 87 81 81 81 74 61 65 71 74 77 81 84 84 81 71 71 71 65 68 61 61 74 74 74 74 58 48 42 39 35 39 35 32 35 32 29 29 42
0 0 0 0 0 10 29 48 52 68 81 87 84 77 77 81 87 84 81 81 81 77 74 81 77 74 71 58 61 55 55 52 45 48 52 45 48 39 26 23 29 32 32 23 19 13 13 13 10
0 0 0 0 0 6 26 48 58 58 77 81 84 87 84 81 87 87 81 74 68 68 71 77 81 61 61 52 52 45 42 42 26 32 32 39 39 26 16 6 16 16 10 3 10 10 10 6 3
0 0 0 0 0 3 26 45 52 48 58 71 71 74 74 77 87 81 84 77 74 71 74 68 61 48 52 48 39 39 42 35 29 26 29 26 23 13 10 3 6 3 3 3 3 3 6 6 3
0 0 0 0 6 23 32 39 42 48 48 58 58 68 68 68 71 81 84 81 74 65 58 61 48 45 42 35 29 23 23 16 13 16 10 6 10 10 3 0 0 0 0 0 0 0 0 0 0
0 0 0 3 10 16 23 23 32 35 35 39 45 52 58 61 65 68 71 58 55 48 42 45 42 39 35 32 29 26 16 16 10 10 10 6 3 3 0 0 0 0 0 0 0 0 0 0 0
0 0 0 3 10 13 13 13 19 19 19 32 29 42 45 48 58 65 58 48 45 39 32 26 26 23 23 23 19 16 13 10 3 0 0 0 0 0 0 0 0 0 0 0 0 0 0 0 0
0 0 0 0 3 6 3 6 13 16 16 19 29 26 42 35 45 42 39 35 32 39 32 26 19 19 16 16 13 6 6 3 3 3 0 0 0 0 0 0 0 0 0 0 0 0 0 0 0
0 0 0 0 0 0 0 0 3 6 6 10 10 19 29 26 29 19 16 16 16 16 19 6 16 13 10 6 3 0 0 0 0 0 0 0 0 0 0 0 0 0 0 0 0 0 0 0 0
0 0 0 0 0 0 0 0 0 0 0 3 6 13 19 16 16 16 13 10 10 6 10 0 3 3 0 0 0 0 0 0 0 0 0 0 0 0 0 0 0 0 0 0 0 0 0 0 0
0 0 0 0 0 0 0 0 0 0 3 0 0 3 13 13 6 6 3 3 3 0 3 0 0 0 0 0 0 0 0 0 0 0 0 0 0 0 0 0 0 0 0 0 0 0 0 0 0
0 0 0 0 0 0 0 0 0 0 0 0 0 0 3 3 6 0 3 0 0 0 0 0 0 0 0 0 0 0 0 0 0 0 0 0 0 0 0 0 0 0 0 0 0 0 0 0 0
0 0 0 0 0 0 0 0 0 0 0 0 0 0 0 0 0 0 0 0 0 0 0 0 0 0 0 0 0 0 0 0 0 0 0 0 0 0 0 0 0 0 0 0 0 0 0 0 0
0 0 0 0 0 0 0 0 0 0 0 0 0 0 0 0 0 0 0 0 0 0 0 0 0 0 0 0 0 0 0 0 0 0 0 0 0 0 0 0 0 0 0 0 0 0 0 0 0
0 0 0 0 0 0 0 0 0 0 0 0 0 0 0 0 0 0 0 0 0 0 0 0 0 0 0 0 0 0 0 0 0 0 0 0 0 0 0 0 0 0 0 0 0 0 0 0 0
0 0 0 0 0 0 0 0 0 0 0 0 0 0 0 0 0 0 0 0 0 0 0 0 0 0 0 0 0 0 0 0 0 0 0 0 0 0 0 0 0 0 0 0 0 0 0 0 0
0 0 0 0 0 0 0 0 0 0 0 0 0 0 0 0 0 0 0 0 0 0 0 0 0 0 0 0 0 0 0 0 0 0 0 0 0 0 0 0 0 0 0 0 0 0 0 0 0

GEFSSGP_con_cape1000_072.txt.gz
Probability
35 10 3 0 0 0 0 0 3 0 0 0 0 13 26 32 6 3 16 26 65 100 100 100 100 100 100 100 100 100 100 100 100 100 100 100 100 100 100 100 100 100 100 97 94 94 100 97 94
13 3 0 0 3 0 0 0 0 0 0 0 0 6 45 71 42 29 29 48 97 100 100 100 100 100 100 100 100 100 100 100 100 100 100 100 100 100 100 100 97 100 100 97 94 97 97 94 94
3 0 0 0 3 0 0 0 0 0 0 0 0 0 52 71 52 39 35 84 100 100 100 100 100 100 100 100 100 100 100 100 100 100 100 100 100 100 100 97 97 100 100 100 97 94 97 90 97
0 0 0 3 3 0 0 0 0 0 0 0 0 6 55 84 71 39 68 97 100 100 100 100 100 100 100 100 100 100 100 100 100 100 100 100 100 100 100 100 100 100 100 100 97 97 94 97 97
0 0 0 3 0 0 0 0 0 0 0 0 3 29 77 81 48 61 97 100 100 100 100 100 100 100 100 100 100 100 100 100 100 100 100 100 100 100 100 100 100 100 100 97 97 97 100 97 100
0 0 0 0 0 0 0 0 0 0 0 0 10 29 68 55 58 77 94 100 100 100 100 100 100 100 100 100 100 100 100 100 100 100 100 100 100 100 100 100 100 100 100 100 100 100 97 100 100
0 0 0 0 0 0 0 0 0 0 0 6 10 55 77 61 52 61 77 97 100 100 100 100 100 100 100 100 100 100 100 100 100 100 100 100 100 100 100 100 100 100 100 100 100 100 97 97 97
0 0 0 0 0 0 0 0 0 6 6 13 19 58 71 74 52 61 81 97 100 100 100 100 100 100 100 100 100 100 100 100 100 100 100 100 100 100 100 100 100 100 100 100 100 100 97 100 100
0 0 0 0 0 0 0 0 10 16 16 26 35 45 71 81 58 71 81 87 94 97 97 100 100 100 100 100 100 100 100 100 100 100 100 100 100 100 100 100 100 100 100 100 100 100 100 100 100
0 0 0 0 0 0 0 10 10 16 32 48 68 84 87 87 74 65 61 68 77 90 90 94 100 100 97 97 100 100 100 100 100 100 100 100 100 100 100 100 100 100 100 100 100 100 100 100 94
0 0 0 0 0 0 0 10 26 26 35 55 71 90 87 81 71 65 52 45 61 71 87 90 94 94 87 90 97 97 100 100 100 100 97 100 97 97 94 94 90 87 94 90 90 90 94 90 90
0 0 0 0 0 0 13 23 32 52 65 74 81 84 84 87 74 74 68 65 61 71 84 94 90 84 81 81 87 90 94 94 94 94 97 94 87 87 84 81 77 77 74 74 74 74 77 77 84
0 0 3 3 10 19 19 32 45 61 71 77 77 81 77 77 81 74 74 74 71 71 74 81 74 68 71 71 71 81 84 81 77 74 74 74 77 71 68 61 52 48 58 65 61 61 61 61 68
0 0 0 13 19 29 32 45 48 52 68 71 71 68 68 74 71 74 74 68 68 65 58 68 71 71 68 61 58 39 42 48 55 65 65 58 58 55 42 35 26 29 26 35 45 39 48 55 52
0 0 0 3 19 29 42 58 65 68 68 68 61 58 61 61 71 68 65 65 58 68 55 58 61 55 55 48 42 39 32 32 35 35 35 35 39 35 19 23 16 16 16 16 16 23 19 19 16
0 0 0 0 13 32 39 52 52 48 68 68 74 68 65 65 55 65 71 61 55 52 52 48 58 35 26 26 29 23 13 13 13 13 16 13 16 10 16 16 13 10 6 3 3 3 3 3 6
0 0 0 3 23 32 52 52 45 35 58 65 68 71 71 65 58 65 68 58 58 39 32 29 29 29 26 16 13 16 10 10 10 10 10 13 10 10 10 10 3 0 0 0 0 0 0 0 0
0 0 3 13 26 39 45 45 29 23 32 45 52 58 61 61 58 61 68 65 39 26 19 16 19 19 16 13 10 6 3 3 3 3 3 6 6 3 3 0 0 0 0 0 0 0 0 0 0
0 3 6 13 19 26 35 35 23 19 26 32 32 39 42 45 42 45 58 55 35 10 10 10 10 10 6 3 3 3 3 0 0 0 0 0 0 0 0 0 0 0 0 0 0 0 0 0 0
0 10 6 10 13 19 26 32 29 19 19 13 23 29 29 35 39 45 48 35 13 16 10 6 3 3 0 0 0 0 0 0 0 0 0 0 0 0 0 0 0 0 0 0 0 0 0 0 0
0 0 3 3 3 3 6 10 13 10 10 10 16 10 13 23 19 23 16 13 10 10 6 6 3 3 0 0 0 0 0 0 0 0 0 0 0 0 0 0 0 0 0 0 0 0 0 0 0
0 0 0 3 0 0 0 0 0 0 3 10 10 6 6 3 3 6 6 6 3 3 6 3 0 0 0 0 0 0 0 0 0 0 0 0 0 0 0 0 0 0 0 0 0 0 0 0 0
0 0 0 0 0 0 0 0 0 0 0 0 3 6 6 3 3 3 3 3 3 3 0 0 0 0 0 0 0 0 0 0 0 0 0 0 0 0 0 0 0 0 0 0 0 0 0 0 0
0 0 0 0 0 0 0 0 0 0 0 0 0 3 3 3 3 3 3 0 0 0 0 0 0 0 0 0 0 0 0 0 0 0 0 0 0 0 0 0 0 0 0 0 0 0 0 0 0
0 0 0 0 0 0 0 0 0 0 0 0 0 0 0 0 0 0 0 0 0 0 0 0 0 0 0 0 0 0 0 0 0 0 0 0 0 0 0 0 0 0 0 0 0 0 0 0 0
0 0 0 0 0 0 0 0 0 0 0 0 0 0 0 0 0 0 0 0 0 0 0 0 0 0 0 0 0 0 0 0 0 0 0 0 0 0 0 0 0 0 0 0 0 0 0 0 0
0 0 0 0 0 0 0 0 0 0 0 0 0 0 0 0 0 0 0 0 0 0 0 0 0 0 0 0 0 0 0 0 0 0 0 0 0 0 0 0 0 0 0 0 0 0 0 0 0
0 0 0 0 0 0 0 0 0 0 0 0 0 0 0 0 0 0 0 0 0 0 0 0 0 0 0 0 0 0 0 0 0 0 0 0 0 0 0 0 0 0 0 0 0 0 0 0 0
0 0 0 0 0 0 0 0 0 0 0 0 0 0 0 0 0 0 0 0 0 0 0 0 0 0 0 0 0 0 0 0 0 0 0 0 0 0 0 0 0 0 0 0 0 0 0 0 0
0 0 0 0 0 0 0 0 0 0 0 0 0 0 0 0 0 0 0 0 0 0 0 0 0 0 0 0 0 0 0 0 0 0 0 0 0 0 0 0 0 0 0 0 0 0 0 0 0

GEFSSGP_con_cape1000_078.txt.gz
Probability
45 16 6 16 65 45 0 0 0 0 0 19 23 26 35 48 48 77 84 71 87 100 100 100 100 100 100 100 100 100 100 100 100 100 100 100 100 100 100 100 100 100 97 90 94 97 87 94 87
16 6 10 29 61 0 0 0 0 0 10 13 16 32 39 71 77 74 84 84 90 100 100 100 100 100 100 100 100 100 100 100 100 100 100 100 100 100 100 100 100 100 94 90 90 90 90 84 87
10 3 16 23 13 0 0 0 0 3 3 6 19 45 58 84 84 77 87 87 97 100 100 100 100 100 100 100 100 100 100 100 100 100 100 100 100 100 100 100 97 100 97 94 90 94 81 84 84
10 6 13 16 6 3 0 0 0 0 0 6 19 39 87 84 81 77 87 90 97 100 100 100 100 100 100 100 100 100 100 100 100 100 100 100 100 100 100 100 97 97 100 94 90 87 87 84 77
10 6 6 3 0 0 0 0 0 6 3 10 23 52 90 97 94 87 90 94 94 97 100 100 100 100 100 100 100 100 100 100 100 100 100 100 100 100 100 100 100 100 100 94 87 87 87 77 87
6 3 0 0 0 0 0 0 6 13 19 26 42 61 97 100 97 94 97 90 77 90 100 100 100 100 100 100 100 100 100 100 100 100 100 100 100 100 100 100 100 100 100 94 94 90 90 90 84
0 0 0 0 0 0 0 6 13 19 26 42 55 71 97 100 100 97 100 97 81 84 100 100 100 100 100 100 100 100 100 100 100 100 100 100 100 100 100 100 100 100 100 100 97 97 94 100 100
0 0 0 0 0 0 0 3 19 29 39 58 61 71 87 100 100 100 100 97 90 90 97 100 100 100 100 100 100 100 97 97 97 97 97 100 100 100 100 100 100 100 100 100 100 97 94 97 100
0 0 0 0 0 0 0 6 19 35 48 65 84 84 90 100 100 100 97 94 97 97 100 100 100 100 100 100 100 100 97 97 94 94 94 100 100 100 100 97 100 97 97 97 94 100 97 97 100
0 0 0 0 0 0 0 3 35 35 65 87 90 94 97 100 100 97 97 97 100 97 97 97 100 100 100 94 97 97 97 97 94 94 94 94 94 97 90 97 97 97 97 97 97 94 97 97 94
0 0 0 0 0 0 0 16 39 45 71 84 94 97 97 100 97 94 90 87 97 97 97 97 94 94 94 94 94 90 90 94 90 90 87 90 97 97 97 94 97 97 94 97 97 94 84 81 87
0 0 0 0 3 3 6 32 55 68 84 90 94 100 97 100 97 94 90 97 97 97 94 87 94 94 90 90 90 94 94 94 97 90 90 94 100 100 100 100 90 87 94 90 84 74 77 81 81
0 3 3 10 26 23 32 42 61 77 87 97 97 100 100 97 97 100 94 100 100 94 94 94 94 94 94 87 94 90 94 94 100 97 94 94 90 90 87 87 84 81 84 74 74 68 65 74 71
3 3 6 19 32 39 42 48 71 90 97 100 97 100 97 97 97 97 100 97 94 90 94 94 94 87 90 97 94 87 84 90 90 84 84 84 77 77 77 71 68 61 68 68 65 61 61 61 68
3 3 10 32 39 45 52 61 94 94 94 97 97 97 97 97 97 97 94 94 90 87 90 90 94 94 90 90 90 81 84 87 81 77 84 77 74 77 74 68 65 58 52 45 48 42 48 58 48
0 0 0 13 42 52 42 45 90 97 97 94 97 97 97 97 94 97 97 90 90 90 87 87 77 87 87 84 87 68 71 61 68 68 71 65 71 74 68 52 48 55 48 42 42 32 39 35 35
0 0 0 16 52 52 42 61 84 90 87 87 84 84 87 90 84 84 81 81 84 84 81 81 77 74 77 74 77 71 68 71 61 65 61 65 55 55 48 39 45 48 39 39 26 23 29 32 35
0 0 0 13 35 48 55 68 77 77 84 81 77 77 71 74 71 68 74 74 77 81 77 81 84 84 81 77 77 74 61 58 45 32 39 35 35 42 32 35 29 39 29 32 32 26 32 35 32
0 0 3 26 42 39 45 65 68 68 68 65 71 71 68 58 61 68 71 68 74 84 81 74 81 84 77 74 55 48 35 32 29 26 26 26 23 23 26 23 23 23 23 23 19 16 13 19 19
0 0 6 29 39 45 45 48 61 61 52 45 52 48 58 55 52 58 65 52 65 71 74 74 74 71 65 65 58 52 29 23 26 23 29 16 13 16 6 13 16 19 19 16 13 16 13 10 6
3 3 3 16 35 42 42 39 48 45 39 35 29 32 29 29 32 35 39 35 55 55 58 35 65 65 68 65 35 32 42 32 10 13 16 16 10 6 6 6 6 6 6 6 13 13 10 13 6
0 0 3 6 23 16 10 10 35 39 32 23 19 13 13 23 16 16 26 26 26 32 39 48 61 61 68 52 39 23 26 13 19 13 13 13 3 3 3 3 3 3 3 3 6 0 6 10 6
0 0 3 10 10 6 3 6 10 23 23 10 10 6 10 10 10 13 26 26 29 32 32 42 52 58 58 52 52 55 13 13 10 10 13 13 3 3 3 3 3 6 3 0 0 0 6 6 3
0 0 3 3 0 0 0 0 0 10 10 6 10 6 6 3 3 6 23 35 32 39 39 39 58 52 48 48 42 35 32 29 13 16 13 10 0 0 0 0 0 0 3 0 3 0 0 3 0
0 3 0 0 0 0 0 0 0 3 3 10 6 0 3 3 3 16 29 42 35 42 39 39 39 35 26 23 16 19 13 13 13 13 3 3 0 3 3 0 0 0 0 0 0 3 0 0 3
0 0 0 0 0 0 0 0 0 3 3 3 10 3 3 0 16 23 35 26 29 29 29 23 16 16 13 13 13 6 6 3 3 3 3 0 0 0 0 0 0 0 0 0 0 3 3 0 0
3 3 0 0 0 0 0 0 0 0 0 0 6 0 0 0 10 10 13 19 16 13 16 13 13 10 10 10 3 3 3 3 3 3 3 0 0 0 0 0 0 0 0 0 0 0 0 0 0
0 0 0 0 0 0 0 0 0 0 0 0 0 0 0 3 6 3 6 6 6 13 13 10 10 6 3 3 3 3 0 3 3 0 0 0 0 0 0 0 0 0 0 0 0 0 0 0 0
0 0 0 0 0 0 0 0 0 0 0 0 0 0 0 3 3 0 6 6 6 3 3 3 3 3 3 0 0 0 0 0 0 0 0 0 0 0 0 0 0 0 0 0 0 0 0 0 0
0 0 0 0 0 0 0 0 0 0 0 0 0 0 0 3 0 0 0 3 3 3 0 3 0 0 0 0 0 0 0 0 0 0 0 0 0 0 0 0 0 0 0 0 0 0 0 0 0

GEFSSGP_con_cape1000_084.txt.gz
Probability
61 48 52 61 71 65 29 3 0 0 3 3 6 26 58 77 81 74 52 74 97 94 100 100 100 100 100 100 100 100 100 100 100 100 100 100 100 100 100 100 97 97 97 97 97 94 90 87 84
26 45 61 65 58 45 6 0 0 0 0 3 16 35 58 71 68 61 71 90 94 87 97 100 100 100 100 100 100 100 100 100 100 100 100 100 100 100 100 97 100 100 94 90 90 94 90 81 77
35 61 48 61 48 13 0 0 3 0 0 10 23 39 55 68 68 74 81 90 94 94 100 100 100 100 100 100 100 100 100 100 100 100 100 100 100 100 100 100 97 97 94 90 84 94 84 81 71
48 42 42 32 6 0 0 0 0 0 0 6 29 61 61 55 71 68 81 97 94 100 100 100 100 100 100 100 100 100 100 100 100 100 100 100 100 100 100 97 97 100 100 84 81 81 84 81 77
32 32 26 19 0 0 0 0 0 0 3 16 45 81 77 71 65 65 81 97 100 100 100 100 100 100 100 100 100 100 100 100 100 100 100 100 100 100 100 100 97 94 97 84 84 87 74 68 65
29 10 10 6 0 0 0 0 3 3 10 19 58 74 77 74 65 55 68 77 97 100 100 100 100 100 100 100 100 100 100 100 100 100 100 100 100 100 100 100 100 97 97 90 87 84 87 77 74
6 3 3 0 0 0 0 0 6 10 26 35 55 71 74 71 65 61 65 77 97 100 100 100 100 100 100 100 100 100 100 100 100 100 100 100 100 100 100 100 100 97 97 94 87 87 87 87 87
0 0 0 0 0 0 0 0 10 13 23 35 55 68 71 81 74 74 71 84 97 100 100 100 100 100 100 100 100 100 100 100 97 97 97 100 100 100 100 100 100 100 97 97 94 94 94 94 97
0 0 0 0 0 0 0 0 3 13 13 29 65 71 81 84 84 68 71 87 100 100 100 100 100 100 100 100 100 100 100 100 97 100 90 90 94 94 94 94 97 97 94 94 97 90 87 94 97
0 0 0 0 0 0 0 0 6 6 23 48 68 65 74 77 90 87 87 87 100 100 94 100 100 100 100 100 100 100 100 97 97 97 90 94 94 94 90 90 90 90 90 90 94 90 94 94 90
0 0 0 0 0 0 0 3 10 10 26 48 68 81 87 87 94 90 94 100 100 97 90 90 100 100 100 100 97 100 100 97 94 94 90 94 94 90 87 90 84 84 87 94 94 87 87 77 77
0 0 0 0 0 0 0 6 23 32 39 48 65 84 87 87 94 90 94 97 100 100 100 97 100 100 100 100 100 100 97 97 94 90 90 87 94 90 87 81 84 81 77 84 84 81 77 74 74
0 0 0 0 0 0 0 19 32 35 48 42 68 84 81 87 90 94 97 100 100 100 100 100 100 100 100 100 97 97 94 94 90 90 90 87 90 87 81 74 84 81 81 84 81 65 68 61 65
0 0 3 0 0 3 3 16 29 52 61 58 71 81 87 84 90 97 94 90 97 97 97 97 100 100 100 97 97 97 84 94 84 87 81 81 81 84 81 90 84 77 84 84 81 65 61 55 61
0 0 0 0 0 6 6 16 26 39 61 68 74 84 87 90 84 90 87 87 90 94 94 94 97 100 94 94 94 84 84 87 90 90 87 71 77 71 77 77 81 74 71 68 71 58 55 48 52
0 0 0 0 0 0 6 10 19 52 58 74 77 84 87 87 81 84 84 87 94 90 94 94 77 94 87 97 90 84 81 90 90 81 87 84 81 77 81 84 71 74 71 71 68 52 35 35 39
0 0 0 0 0 0 0 13 16 35 48 74 81 81 81 84 81 81 74 81 81 90 90 87 84 90 90 87 84 77 84 87 74 71 71 71 58 48 55 71 74 61 55 58 32 39 35 32 32
0 0 0 0 0 0 3 10 19 32 42 74 74 81 81 84 81 77 74 74 81 81 84 87 87 90 90 90 87 87 77 71 65 65 65 45 45 45 45 52 55 45 45 55 45 42 45 35 35
0 0 0 0 0 0 6 16 26 29 39 61 74 77 68 65 68 68 58 61 71 81 84 84 87 87 90 90 87 87 87 74 65 55 52 42 35 26 32 26 32 35 32 26 32 35 26 23 26
0 0 0 0 0 3 6 13 32 32 39 48 58 61 61 55 55 55 52 58 65 84 87 87 87 87 87 87 87 87 77 74 68 61 48 32 19 16 10 16 19 19 19 19 29 26 19 19 10
0 0 0 3 3 6 13 16 23 29 35 42 39 52 52 48 48 48 48 52 61 74 77 65 84 87 81 84 77 84 81 81 74 55 61 35 26 19 16 16 10 16 13 10 13 19 10 13 16
0 0 0 0 0 0 0 6 19 26 32 29 39 35 35 32 35 35 42 52 52 61 65 74 84 81 77 71 68 68 55 45 55 61 52 39 29 23 23 23 13 10 6 10 6 10 6 6 3
0 0 0 0 0 0 0 0 16 19 13 19 19 19 26 16 23 35 42 55 45 39 61 68 77 71 65 61 55 52 55 52 45 42 29 26 29 29 26 19 13 10 6 6 6 6 6 6 6
0 0 0 0 0 3 3 0 3 10 13 19 13 6 16 16 19 29 32 52 52 42 45 58 77 65 52 52 52 45 45 42 35 26 23 16 16 13 10 16 10 6 3 3 3 3 0 3 3
0 6 10 0 0 0 0 0 6 3 3 13 13 6 6 10 13 26 29 42 45 48 45 55 71 58 45 42 35 32 26 26 29 16 13 10 6 6 6 0 0 0 0 0 0 0 3 3 3
0 0 6 0 0 0 0 0 0 3 0 10 10 6 3 3 10 13 29 48 55 45 55 52 55 42 35 32 26 16 13 13 6 3 3 3 3 0 0 0 0 0 0 0 0 0 0 0 3
0 0 0 0 0 0 0 0 0 0 0 3 6 0 0 6 10 6 26 42 42 45 45 39 42 29 26 16 10 13 10 6 3 6 6 3 6 3 0 0 0 0 0 0 0 0 0 0 0
0 0 0 0 0 0 0 0 3 0 0 3 0 0 0 3 0 0 19 26 32 35 35 29 29 19 10 10 3 3 3 10 3 3 0 3 3 0 0 0 0 0 0 0 3 0 0 0 3
0 0 0 0 0 0 0 0 3 6 3 3 3 0 3 0 0 3 13 13 16 10 10 13 13 10 6 3 3 3 3 3 6 6 0 3 3 3 0 0 0 0 0 3 3 0 3 0 3
0 0 0 0 10 10 0 0 0 0 0 0 3 3 6 10 3 3 13 6 6 6 10 6 6 3 3 3 3 0 6 6 6 0 3 3 3 3 0 0 0 0 0 0 0 0 0 3 3